Zurück zum Katalog

STARLINK-6076

AktivKommunikationVLEO
NORAD 56100·PAYLOAD·🇺🇸 United States

Gestartet Mar 29, 2023 von Cape Canaveral Space Force Station

Loading…

Nächste Überflüge (nächste 24 Stunden)

TLE

AktuellSource: CelesTrak SupGP

Epoche: Sep 14, 2026, 20:44 UTC

1 56100C 23046H   26257.86437500 -.00018592  00000+0 -67346-3 0  2574
2 56100  43.0007 172.8559 0001466 261.0395 235.8111 15.27584118    12

Verfolge STARLINK-6076 in Echtzeit mit AllMySat

Download on the App Store